Regional Weather Roundup
Issued by NWS

Home | Current Version | Previous Version | Graphics & Text | Print | Product List | Glossary On
Versions: 1 2 3 4 5 6 7 8 9 10 11 12 13 14 15 16 17 18 19 20 21 22 23 24 25 26 27 28 29 30 31 32 33 34 35 36 37 38 39 40 41 42 43 44 45 46 47 48 49 50
000
ASUS45 KTFX 211219
RWRMT
MONTANA HOURLY WEATHER ROUNDUP
NATIONAL WEATHER SERVICE GREAT FALLS MT
619 AM MDT THU AUG 21 2014

NOTE: "FAIR" INDICATES FEW OR NO CLOUDS BELOW 12000 FEET WITH NO
SIGNIFICANT WEATHER AND/OR OBSTRUCTIONS TO VISIBILITY.

* THESE STATIONS ARE NOT UNDER NWS QUALITY CONTROL. THEY DO NOT
   REPORT WEATHER SUCH AS PRECIPITATION OR FOG.

MTZ001>007-043-211300-
WEST OF THE DIVIDE
CITY           SKY/WX    TMP DP  RH WIND       PRES   REMARKS
KALISPELL      CLOUDY    55  52  90 N7        30.01R
MISSOULA       MOCLDY    54  48  80 CALM      30.00S
BUTTE          CLOUDY    50  46  86 S3        30.08F
MULLAN PASS    CLEAR     48  45  89 CALM      30.06S
* ESSEX        N/A       51  50  96 E1         N/A
* LINCOLN      N/A       48  48 100 E2         N/A
* LOOKOUT PASS N/A       49  47  93 N1         N/A
* POLSON       N/A       51  51 100 N/A        N/A
* RONAN APT    PTCLDY    55  54  96 N/A        N/A
* SEELEY LAKE  N/A       49  48  96 N2         N/A
* THOMP F APT  CLEAR     49  47  93 E2         N/A
* YAAK HILL    N/A       53  51  93 N/A        N/A
$$

MTZ008-052>055-211300-
SOUTHWEST MONTANA
CITY           SKY/WX    TMP DP  RH WIND       PRES   REMARKS
BOZEMAN        CLOUDY    55  52  90 SE7       30.05R
DILLON         LGT RAIN  54  48  80 W5        30.05S
W YELLOWSTONE  CLOUDY    46  45  96 SE3       30.13F
* THREE FORKS  CLOUDY    55  55 100 N/A        N/A
* BOULDER HILL N/A       48  44  86 NE2        N/A
* MONIDA PASS  N/A       48  48 100 SE8        N/A
* RAYNOLDS PAS N/A       48  29  48 SE12       N/A
* WHITEHALL    N/A       54  49  83 N4         N/A
* WISE RIVER   N/A       48  46  93 W5         N/A
$$

MTZ009>010-012-014-046-048-049-054-211300-
EAST SLOPES AND CENTRAL MONTANA
CITY           SKY/WX    TMP DP  RH WIND       PRES   REMARKS
CUT BANK       CLOUDY    52  48  86 N10       30.08R
GREAT FALLS    CLOUDY    55  54  96 NW5       30.04R
HELENA         CLOUDY    55  50  83 CALM      30.04R
MALMSTROM AFB  CLOUDY    55  54  96 N5        30.05S
* CONRAD       MOCLDY    54  54 100 NW9        N/A
* DEARBORN     N/A       56  52  87 SW4        N/A
* EAST GLACIER N/A       46  45  96 VRB4       N/A
* MONARCH      N/A       48  46  93 NW2        N/A
* PENDROY      N/A       50  50 100 VRB12      N/A
* ROGERS PASS  N/A       44  43  96 N/A        N/A
* SAINT MARY   N/A       47  46  96 SE2        N/A
* SWEET GRASS  N/A       50  50 100 N7         N/A
* WHITE SULPH  N/A       50  47  89 NW5        N/A
$$

MTZ011-013-016-021-035-040-045-047-050-051-211300-
NORTH CENTRAL MONTANA
CITY           SKY/WX    TMP DP  RH WIND       PRES   REMARKS
HAVRE          CLOUDY    57  57 100 SW3       29.98R
LEWISTOWN      CLOUDY    55  54  96 W6        30.05R
* FORT BENTON  CLOUDY    57  55  93 SW5       30.02S
* CHESTER      N/A       53  51  93 NE4        N/A
* DENTON       N/A       56  54  93 W3         N/A
* GEYSER       N/A       53  52  96 SW6        N/A
* JUDITH GAP   N/A       52  52 100 NW12       N/A
* LOMA         N/A       57  56  96 S4         N/A
$$

MTZ017>020-022>027-061-062-211300-
NORTHEAST MONTANA
CITY           SKY/WX    TMP DP  RH WIND       PRES   REMARKS
GLASGOW        CLOUDY    63  57  81 N9        29.90R
GLENDIVE       CLEAR     59  57  93 NW7       29.92R
JORDAN         CLOUDY    61  57  87 W6        29.94R
SIDNEY         CLEAR     61  59  93 NW10      29.89R
WOLF POINT     MOCLDY    63  55  75 CALM      29.90R
* BEAVER HILL  N/A       57  56  96 W1         N/A
* CIRCLE       N/A       61  59  93 W3         N/A
* LINDSAY DVD  N/A       58  56  93 W10        N/A
* SACO         N/A       59  57  93 SW3        N/A
$$

MTZ028>042-056>058-211300-
SOUTHCENTRAL AND SOUTHEAST MONTANA
CITY           SKY/WX    TMP DP  RH WIND       PRES   REMARKS
BAKER          CLEAR     54  54 100 NW5       29.92R
BILLINGS       CLOUDY    59  55  87 NW7       30.00R
LIVINGSTON     CLOUDY    57  50  78 W10       30.04R
MILES CITY     MOCLDY    63  54  73 N5        29.93R
* LAUREL APT   CLOUDY    57  54  90 N/A        N/A
* ROUNDUP APT  CLOUDY    59  52  78 N/A        N/A
* ALZADA       N/A       56  51  83 N/A        N/A
* HYSHAM       N/A       59  55  87 SW1        N/A
* LAME DEER    N/A       58  50  75 NW8G14     N/A
* REED POINT   N/A       59  52  78 SW2        N/A
* ROSCOE HILL  N/A       55  46  72 N1         N/A
$$

REGIONAL REPORTS...DAKOTAS
CITY           SKY/WX    TMP DP  RH WIND       PRES   REMARKS
WILLISTON      FOG       55  55 100 CALM      29.87R VSB 2 1/2
DICKINSON      CLEAR     55  54  96 W6        29.86R
BEACH          N/A       55  55 100 CALM      29.92R
CROSBY         FOG       57  57 100 NW9       29.87R VSB 3
TIOGA          FOG       61  61 100 NW7       29.88R VSB 1 3/4
WATFORD CITY   FOG       59  59 100 CALM      29.85R VSB M1/4
BISMARCK       CLOUDY    64  64 100 NW5       29.80R
GRAND FORKS    CLOUDY    70  64  81 SE7       29.76R
FARGO          CLOUDY    70  66  87 NE3       29.74R
BUFFALO SD     PTCLDY    57  54  90 W7        29.84S
RAPID CITY     MOCLDY    63  59  87 CALM      29.91R
$$

REGIONAL REPORTS...WYOMING/IDAHO/WASHINGTON
CITY           SKY/WX    TMP DP  RH WIND       PRES   REMARKS
GILLETTE       PTCLDY    57  54  90 W3        29.97S
SHERIDAN       MOCLDY    52  46  80 S6        29.98R
CODY           CLOUDY    61  45  56 W5        30.04S
YELLOWSTONE LA MOCLDY    45  45 100 CALM      30.20S
SALMON         CLOUDY    52  52 100 SW6       30.03S
MULLAN PASS    CLEAR     48  45  89 CALM      30.06S
SAND POINT     PTCLDY    50  50 100 CALM      29.98R
SPOKANE        MOCLDY    57  54  90 SE5       29.96R
$$

REGIONAL REPORTS...ALBERTA
CITY           SKY/WX    TMP DP  RH WIND       PRES   REMARKS
CALGARY        MOCLDY    48  45  89 NW8       30.13R
LETHBRIDGE     CLOUDY    54  52  93 NW7       30.08R
MEDICINE HAT   LGT RAIN  55  54  96 NW8       30.03R
EDMONTON       CLOUDY    48  46  93 W3        30.14R
WATERTON GATE  N/A       48  46  93 N2         N/A
CARDSTON       N/A       48  48 100 NW6        N/A
$$

REGIONAL REPORTS...SASKATCHEWAN
CITY           SKY/WX    TMP DP  RH WIND       PRES   REMARKS
SWIFT CURRENT  FOG       57  57 100 N6        29.97R
MOOSE JAW      CLOUDY   N/A N/A N/A N12        N/A
REGINA         CLOUDY    61  59  93 N12G23    29.90R
VAL MARIE      N/A       59  57  93 N7         N/A
ASSINIBOIA     N/A       59  57  93 N7         N/A
CORONACH       N/A       57  57 100 NW5        N/A

$$



USA.gov is the U.S. government's official web portal to all federal, state and local government web resources and services.